Year,Month,Day,Hour,Minute,Value (Times are PST for temperature in C)
2008,12,08,00,00,2.20
2008,12,08,00,01,2.20
2008,12,08,00,02,2.20
2008,12,08,00,03,2.20
2008,12,08,00,04,2.20
2008,12,08,00,05,2.20
2008,12,08,00,06,2.30
2008,12,08,00,07,2.30
2008,12,08,00,08,2.30
2008,12,08,00,09,2.30
2008,12,08,00,10,2.30
2008,12,08,00,11,2.40
2008,12,08,00,12,2.40
2008,12,08,00,13,2.40
2008,12,08,00,14,2.40
2008,12,08,00,15,2.40
2008,12,08,00,16,2.40
2008,12,08,00,17,2.40
2008,12,08,00,18,2.40
2008,12,08,00,19,2.40
2008,12,08,00,20,2.40
2008,12,08,00,21,2.50
2008,12,08,00,22,2.50
2008,12,08,00,23,2.50
2008,12,08,00,24,2.50
2008,12,08,00,25,2.50
2008,12,08,00,26,2.60
2008,12,08,00,27,2.60
2008,12,08,00,28,2.60
2008,12,08,00,29,2.60
2008,12,08,00,30,2.60
2008,12,08,00,31,2.60
2008,12,08,00,32,2.60
2008,12,08,00,33,2.60
2008,12,08,00,34,2.60
2008,12,08,00,35,2.60
2008,12,08,00,36,2.60
2008,12,08,00,37,2.60
2008,12,08,00,38,2.60
2008,12,08,00,39,2.60
2008,12,08,00,40,2.60
2008,12,08,00,41,2.70
2008,12,08,00,42,2.70
2008,12,08,00,43,2.70
2008,12,08,00,44,2.70
2008,12,08,00,45,2.70
2008,12,08,00,46,2.70
2008,12,08,00,47,2.70
2008,12,08,00,48,2.70
2008,12,08,00,49,2.70
2008,12,08,00,50,2.70
2008,12,08,00,51,2.70
2008,12,08,00,52,2.70
2008,12,08,00,53,2.70
2008,12,08,00,54,2.70
2008,12,08,00,55,2.70
2008,12,08,00,56,2.70
2008,12,08,00,57,2.70
2008,12,08,00,58,2.70
2008,12,08,00,59,2.80
2008,12,08,01,00,2.80
2008,12,08,01,01,2.80
2008,12,08,01,02,2.80
2008,12,08,01,03,2.80
2008,12,08,01,04,2.80
2008,12,08,01,05,2.80
2008,12,08,01,06,2.80
2008,12,08,01,07,2.80
2008,12,08,01,08,2.80
2008,12,08,01,09,2.80
2008,12,08,01,10,2.80
2008,12,08,01,11,2.80
2008,12,08,01,12,2.80
2008,12,08,01,13,2.80
2008,12,08,01,14,2.80
2008,12,08,01,15,2.80
2008,12,08,01,16,2.80
2008,12,08,01,17,2.80
2008,12,08,01,18,2.80
2008,12,08,01,19,2.80
2008,12,08,01,20,2.80
2008,12,08,01,21,2.80
2008,12,08,01,22,2.80
2008,12,08,01,23,2.80
2008,12,08,01,24,2.80
2008,12,08,01,25,2.80
2008,12,08,01,26,2.80
2008,12,08,01,27,2.70
2008,12,08,01,28,2.70
2008,12,08,01,29,2.70
2008,12,08,01,30,2.70
2008,12,08,01,31,2.70
2008,12,08,01,32,2.70
2008,12,08,01,33,2.70
2008,12,08,01,34,2.60
2008,12,08,01,35,2.60
2008,12,08,01,36,2.60
2008,12,08,01,37,2.60
2008,12,08,01,38,2.50
2008,12,08,01,39,2.50
2008,12,08,01,40,2.50
2008,12,08,01,41,2.40
2008,12,08,01,42,2.40
2008,12,08,01,43,2.40
2008,12,08,01,44,2.40
2008,12,08,01,45,2.30
2008,12,08,01,46,2.30
2008,12,08,01,47,2.30
2008,12,08,01,48,2.30
2008,12,08,01,49,2.20
2008,12,08,01,50,2.20
2008,12,08,01,51,2.10
2008,12,08,01,52,2.10
2008,12,08,01,53,2.10
2008,12,08,01,54,2.00
2008,12,08,01,55,2.00
2008,12,08,01,56,2.00
2008,12,08,01,57,1.90
2008,12,08,01,58,1.90
2008,12,08,01,59,1.90
2008,12,08,02,00,1.90
2008,12,08,02,01,1.90
2008,12,08,02,02,1.80
2008,12,08,02,03,1.80
2008,12,08,02,04,1.80
2008,12,08,02,05,1.70
2008,12,08,02,06,1.70
2008,12,08,02,07,1.60
2008,12,08,02,08,1.60
2008,12,08,02,09,1.50
2008,12,08,02,10,1.50
2008,12,08,02,11,1.40
2008,12,08,02,12,1.30
2008,12,08,02,13,1.30
2008,12,08,02,14,1.30
2008,12,08,02,15,1.30
2008,12,08,02,16,1.30
2008,12,08,02,17,1.30
2008,12,08,02,18,1.30
2008,12,08,02,19,1.30
2008,12,08,02,20,1.30
2008,12,08,02,21,1.30
2008,12,08,02,22,1.20
2008,12,08,02,23,1.20
2008,12,08,02,24,1.20
2008,12,08,02,25,1.20
2008,12,08,02,26,1.10
2008,12,08,02,27,1.10
2008,12,08,02,28,1.10
2008,12,08,02,29,1.10
2008,12,08,02,30,1.00
2008,12,08,02,31,1.00
2008,12,08,02,32,1.00
2008,12,08,02,33,0.90
2008,12,08,02,34,0.90
2008,12,08,02,35,0.90
2008,12,08,02,36,0.90
2008,12,08,02,37,0.90
2008,12,08,02,38,0.80
2008,12,08,02,39,0.80
2008,12,08,02,40,0.80
2008,12,08,02,41,0.70
2008,12,08,02,42,0.70
2008,12,08,02,43,0.70
2008,12,08,02,44,0.70
2008,12,08,02,45,0.60
2008,12,08,02,46,0.60
2008,12,08,02,47,0.60
2008,12,08,02,48,0.60
2008,12,08,02,49,0.60
2008,12,08,02,50,0.60
2008,12,08,02,51,0.60
2008,12,08,02,52,0.50
2008,12,08,02,53,0.50
2008,12,08,02,54,0.50
2008,12,08,02,55,0.50
2008,12,08,02,56,0.40
2008,12,08,02,57,0.40
2008,12,08,02,58,0.40
2008,12,08,02,59,0.40
2008,12,08,03,00,0.40
2008,12,08,03,01,0.40
2008,12,08,03,02,0.40
2008,12,08,03,03,0.40
2008,12,08,03,04,0.30
2008,12,08,03,05,0.30
2008,12,08,03,06,0.30
2008,12,08,03,07,0.30
2008,12,08,03,08,0.30
2008,12,08,03,09,0.30
2008,12,08,03,10,0.20
2008,12,08,03,11,0.20
2008,12,08,03,12,0.20
2008,12,08,03,13,0.20
2008,12,08,03,14,0.20
2008,12,08,03,15,0.10
2008,12,08,03,16,0.10
2008,12,08,03,17,0.10
2008,12,08,03,18,0.10
2008,12,08,03,19,0.10
2008,12,08,03,20,0.10
2008,12,08,03,21,0.00
2008,12,08,03,22,0.00
2008,12,08,03,23,0.00
2008,12,08,03,24,-0.10
2008,12,08,03,25,-0.10
2008,12,08,03,26,-0.10
2008,12,08,03,27,-0.10
2008,12,08,03,28,-0.10
2008,12,08,03,29,-0.10
2008,12,08,03,30,-0.10
2008,12,08,03,31,-0.20
2008,12,08,03,32,-0.20
2008,12,08,03,33,-0.20
2008,12,08,03,34,-0.20
2008,12,08,03,35,-0.20
2008,12,08,03,36,-0.20
2008,12,08,03,37,-0.20
2008,12,08,03,38,-0.30
2008,12,08,03,39,-0.30
2008,12,08,03,40,-0.30
2008,12,08,03,41,-0.30
2008,12,08,03,42,-0.30
2008,12,08,03,43,-0.30
2008,12,08,03,44,-0.30
2008,12,08,03,45,-0.30
2008,12,08,03,46,-0.30
2008,12,08,03,47,-0.30
2008,12,08,03,48,-0.30
2008,12,08,03,49,-0.30
2008,12,08,03,50,-0.30
2008,12,08,03,51,-0.30
2008,12,08,03,52,-0.30
2008,12,08,03,53,-0.30
2008,12,08,03,54,-0.30
2008,12,08,03,55,-0.40
2008,12,08,03,56,-0.40
2008,12,08,03,57,-0.40
2008,12,08,03,58,-0.40
2008,12,08,03,59,-0.40
2008,12,08,04,00,-0.40
2008,12,08,04,01,-0.40
2008,12,08,04,02,-0.40
2008,12,08,04,03,-0.40
2008,12,08,04,04,-0.40
2008,12,08,04,05,-0.40
2008,12,08,04,06,-0.40
2008,12,08,04,07,-0.50
2008,12,08,04,08,-0.50
2008,12,08,04,09,-0.50
2008,12,08,04,10,-0.50
2008,12,08,04,11,-0.50
2008,12,08,04,12,-0.50
2008,12,08,04,13,-0.50
2008,12,08,04,14,-0.50
2008,12,08,04,15,-0.50
2008,12,08,04,16,-0.60
2008,12,08,04,17,-0.60
2008,12,08,04,18,-0.60
2008,12,08,04,19,-0.60
2008,12,08,04,20,-0.60
2008,12,08,04,21,-0.60
2008,12,08,04,22,-0.60
2008,12,08,04,23,-0.60
2008,12,08,04,24,-0.60
2008,12,08,04,25,-0.60
2008,12,08,04,26,-0.60
2008,12,08,04,27,-0.60
2008,12,08,04,28,-0.60
2008,12,08,04,29,-0.60
2008,12,08,04,30,-0.60
2008,12,08,04,31,-0.60
2008,12,08,04,32,-0.60
2008,12,08,04,33,-0.70
2008,12,08,04,34,-0.70
2008,12,08,04,35,-0.70
2008,12,08,04,36,-0.70
2008,12,08,04,37,-0.70
2008,12,08,04,38,-0.70
2008,12,08,04,39,-0.70
2008,12,08,04,40,-0.70
2008,12,08,04,41,-0.70
2008,12,08,04,42,-0.70
2008,12,08,04,43,-0.70
2008,12,08,04,44,-0.70
2008,12,08,04,45,-0.70
2008,12,08,04,46,-0.60
2008,12,08,04,47,-0.60
2008,12,08,04,48,-0.60
2008,12,08,04,49,-0.60
2008,12,08,04,50,-0.60
2008,12,08,04,51,-0.60
2008,12,08,04,52,-0.50
2008,12,08,04,53,-0.50
2008,12,08,04,54,-0.50
2008,12,08,04,55,-0.50
2008,12,08,04,56,-0.40
2008,12,08,04,57,-0.40
2008,12,08,04,58,-0.40
2008,12,08,04,59,-0.40
2008,12,08,05,00,-0.40
2008,12,08,05,01,-0.40
2008,12,08,05,02,-0.40
2008,12,08,05,03,-0.40
2008,12,08,05,04,-0.40
2008,12,08,05,05,-0.40
2008,12,08,05,06,-0.40
2008,12,08,05,07,-0.40
2008,12,08,05,08,-0.50
2008,12,08,05,09,-0.50
2008,12,08,05,10,-0.50
2008,12,08,05,11,-0.50
2008,12,08,05,12,-0.50
2008,12,08,05,13,-0.50
2008,12,08,05,14,-0.50
2008,12,08,05,15,-0.50
2008,12,08,05,16,-0.50
2008,12,08,05,17,-0.50
2008,12,08,05,18,-0.50
2008,12,08,05,19,-0.60
2008,12,08,05,20,-0.60
2008,12,08,05,21,-0.60
2008,12,08,05,22,-0.60
2008,12,08,05,23,-0.60
2008,12,08,05,24,-0.60
2008,12,08,05,25,-0.60
2008,12,08,05,26,-0.60
2008,12,08,05,27,-0.60
2008,12,08,05,28,-0.60
2008,12,08,05,29,-0.60
2008,12,08,05,30,-0.60
2008,12,08,05,31,-0.60
2008,12,08,05,32,-0.60
2008,12,08,05,33,-0.60
2008,12,08,05,34,-0.60
2008,12,08,05,35,-0.60
2008,12,08,05,36,-0.60
2008,12,08,05,37,-0.60
2008,12,08,05,38,-0.60
2008,12,08,05,39,-0.60
2008,12,08,05,40,-0.60
2008,12,08,05,41,-0.50
2008,12,08,05,42,-0.50
2008,12,08,05,43,-0.50
2008,12,08,05,44,-0.50
2008,12,08,05,45,-0.50
2008,12,08,05,46,-0.50
2008,12,08,05,47,-0.50
2008,12,08,05,48,-0.50
2008,12,08,05,49,-0.50
2008,12,08,05,50,-0.50
2008,12,08,05,51,-0.50
2008,12,08,05,52,-0.50
2008,12,08,05,53,-0.50
2008,12,08,05,54,-0.50
2008,12,08,05,55,-0.50
2008,12,08,05,56,-0.50
2008,12,08,05,57,-0.50
2008,12,08,05,58,-0.50
2008,12,08,05,59,-0.50
2008,12,08,06,00,-0.50
2008,12,08,06,01,-0.50
2008,12,08,06,02,-0.50
2008,12,08,06,03,-0.60
2008,12,08,06,04,-0.60
2008,12,08,06,05,-0.60
2008,12,08,06,06,-0.60
2008,12,08,06,07,-0.60
2008,12,08,06,08,-0.60
2008,12,08,06,09,-0.60
2008,12,08,06,10,-0.60
2008,12,08,06,11,-0.60
2008,12,08,06,12,-0.60
2008,12,08,06,13,-0.60
2008,12,08,06,14,-0.60
2008,12,08,06,15,-0.50
2008,12,08,06,16,-0.50
2008,12,08,06,17,-0.50
2008,12,08,06,18,-0.50
2008,12,08,06,19,-0.50
2008,12,08,06,20,-0.40
2008,12,08,06,21,-0.40
2008,12,08,06,22,-0.40
2008,12,08,06,23,-0.40
2008,12,08,06,24,-0.40
2008,12,08,06,25,-0.40
2008,12,08,06,26,-0.40
2008,12,08,06,27,-0.40
2008,12,08,06,28,-0.30
2008,12,08,06,29,-0.30
2008,12,08,06,30,-0.30
2008,12,08,06,31,-0.30
2008,12,08,06,32,-0.30
2008,12,08,06,33,-0.30
2008,12,08,06,34,-0.30
2008,12,08,06,35,-0.30
2008,12,08,06,36,-0.30
2008,12,08,06,37,-0.30
2008,12,08,06,38,-0.30
2008,12,08,06,39,-0.30
2008,12,08,06,40,-0.30
2008,12,08,06,41,-0.30
2008,12,08,06,42,-0.30
2008,12,08,06,43,-0.30
2008,12,08,06,44,-0.30
2008,12,08,06,45,-0.30
2008,12,08,06,46,-0.30
2008,12,08,06,47,-0.30
2008,12,08,06,48,-0.30
2008,12,08,06,49,-0.20
2008,12,08,06,50,-0.20
2008,12,08,06,51,-0.30
2008,12,08,06,52,-0.30
2008,12,08,06,53,-0.30
2008,12,08,06,54,-0.30
2008,12,08,06,55,-0.20
2008,12,08,06,56,-0.20
2008,12,08,06,57,-0.20
2008,12,08,06,58,-0.20
2008,12,08,06,59,-0.20
2008,12,08,07,00,-0.20
2008,12,08,07,01,-0.20
2008,12,08,07,02,-0.30
2008,12,08,07,03,-0.20
2008,12,08,07,04,-0.30
2008,12,08,07,05,-0.30
2008,12,08,07,06,-0.30
2008,12,08,07,07,-0.30
2008,12,08,07,08,-0.30
2008,12,08,07,09,-0.30
2008,12,08,07,10,-0.30
2008,12,08,07,11,-0.30
2008,12,08,07,12,-0.30
2008,12,08,07,13,-0.30
2008,12,08,07,14,-0.30
2008,12,08,07,15,-0.30
2008,12,08,07,16,-0.30
2008,12,08,07,17,-0.30
2008,12,08,07,18,-0.30
2008,12,08,07,19,-0.30
2008,12,08,07,20,-0.30
2008,12,08,07,21,-0.30
2008,12,08,07,22,-0.20
2008,12,08,07,23,-0.20
2008,12,08,07,24,-0.20
2008,12,08,07,25,-0.20
2008,12,08,07,26,-0.20
2008,12,08,07,27,-0.20
2008,12,08,07,28,-0.20
2008,12,08,07,29,-0.20
2008,12,08,07,30,-0.20
2008,12,08,07,31,-0.20
2008,12,08,07,32,-0.20
2008,12,08,07,33,-0.20
2008,12,08,07,34,-0.20
2008,12,08,07,35,-0.20
2008,12,08,07,36,-0.20
2008,12,08,07,37,-0.20
2008,12,08,07,38,-0.20
2008,12,08,07,39,-0.20
2008,12,08,07,40,-0.20
2008,12,08,07,41,-0.10
2008,12,08,07,42,-0.10
2008,12,08,07,43,-0.10
2008,12,08,07,44,-0.10
2008,12,08,07,45,-0.10
2008,12,08,07,46,-0.10
2008,12,08,07,47,-0.10
2008,12,08,07,48,-0.10
2008,12,08,07,49,-0.10
2008,12,08,07,50,-0.10
2008,12,08,07,51,-0.10
2008,12,08,07,52,-0.10
2008,12,08,07,53,-0.10
2008,12,08,07,54,-0.10
2008,12,08,07,55,-0.10
2008,12,08,07,56,-0.10
2008,12,08,07,57,0.00
2008,12,08,07,58,0.00
2008,12,08,07,59,0.00
2008,12,08,08,00,0.00
2008,12,08,08,01,0.00
2008,12,08,08,02,0.00
2008,12,08,08,03,0.00
2008,12,08,08,04,0.00
2008,12,08,08,05,0.00
2008,12,08,08,06,0.00
2008,12,08,08,07,0.10
2008,12,08,08,08,0.10
2008,12,08,08,09,0.10
2008,12,08,08,10,0.10
2008,12,08,08,11,0.10
2008,12,08,08,12,0.10
2008,12,08,08,13,0.10
2008,12,08,08,14,0.10
2008,12,08,08,15,0.10
2008,12,08,08,16,0.10
2008,12,08,08,17,0.10
2008,12,08,08,18,0.10
2008,12,08,08,19,0.20
2008,12,08,08,20,0.20
2008,12,08,08,21,0.20
2008,12,08,08,22,0.20
2008,12,08,08,23,0.20
2008,12,08,08,24,0.30
2008,12,08,08,25,0.30
2008,12,08,08,26,0.30
2008,12,08,08,27,0.30
2008,12,08,08,28,0.30
2008,12,08,08,29,0.30
2008,12,08,08,30,0.30
2008,12,08,08,31,0.30
2008,12,08,08,32,0.30
2008,12,08,08,33,0.30
2008,12,08,08,34,0.30
2008,12,08,08,35,0.30
2008,12,08,08,36,0.40
2008,12,08,08,37,0.40
2008,12,08,08,38,0.40
2008,12,08,08,39,0.40
2008,12,08,08,40,0.40
2008,12,08,08,41,0.50
2008,12,08,08,42,0.50
2008,12,08,08,43,0.50
2008,12,08,08,44,0.60
2008,12,08,08,45,0.60
2008,12,08,08,46,0.60
2008,12,08,08,47,0.60
2008,12,08,08,48,0.60
2008,12,08,08,49,0.60
2008,12,08,08,50,0.60
2008,12,08,08,51,0.60
2008,12,08,08,52,0.60
2008,12,08,08,53,0.70
2008,12,08,08,54,0.70
2008,12,08,08,55,0.70
2008,12,08,08,56,0.70
2008,12,08,08,57,0.70
2008,12,08,08,58,0.70
2008,12,08,08,59,0.80
2008,12,08,09,00,0.80
2008,12,08,09,01,0.80
2008,12,08,09,02,0.90
2008,12,08,09,03,0.90
2008,12,08,09,04,0.90
2008,12,08,09,05,0.90
2008,12,08,09,06,1.00
2008,12,08,09,07,1.00
2008,12,08,09,08,1.10
2008,12,08,09,09,1.10
2008,12,08,09,10,1.10
2008,12,08,09,11,1.20
2008,12,08,09,12,1.20
2008,12,08,09,13,1.20
2008,12,08,09,14,1.20
2008,12,08,09,15,1.30
2008,12,08,09,16,1.30
2008,12,08,09,17,1.30
2008,12,08,09,18,1.30
2008,12,08,09,19,1.30
2008,12,08,09,20,1.30
2008,12,08,09,21,1.30
2008,12,08,09,22,1.40
2008,12,08,09,23,1.40
2008,12,08,09,24,1.50
2008,12,08,09,25,1.50
2008,12,08,09,26,1.50
2008,12,08,09,27,1.60
2008,12,08,09,28,1.60
2008,12,08,09,29,1.60
2008,12,08,09,30,1.70
2008,12,08,09,31,1.70
2008,12,08,09,32,1.70
2008,12,08,09,33,1.80
2008,12,08,09,34,1.80
2008,12,08,09,35,1.80
2008,12,08,09,36,1.80
2008,12,08,09,37,1.80
2008,12,08,09,38,1.90
2008,12,08,09,39,1.90
2008,12,08,09,40,1.90
2008,12,08,09,41,2.00
2008,12,08,09,42,2.00
2008,12,08,09,43,2.00
2008,12,08,09,44,2.10
2008,12,08,09,45,2.10
2008,12,08,09,46,2.20
2008,12,08,09,47,2.20
2008,12,08,09,48,2.30
2008,12,08,09,49,2.30
2008,12,08,09,50,2.30
2008,12,08,09,51,2.30
2008,12,08,09,52,2.40
2008,12,08,09,53,2.40
2008,12,08,09,54,2.40
2008,12,08,09,55,2.50
2008,12,08,09,56,2.50
2008,12,08,09,57,2.50
2008,12,08,09,58,2.50
2008,12,08,09,59,2.60
2008,12,08,10,00,2.60
2008,12,08,10,01,2.60
2008,12,08,10,02,2.60
2008,12,08,10,03,2.60
2008,12,08,10,04,2.60
2008,12,08,10,05,2.60
2008,12,08,10,06,2.60
2008,12,08,10,07,2.60
2008,12,08,10,08,2.70
2008,12,08,10,09,2.70
2008,12,08,10,10,2.70
2008,12,08,10,11,2.70
2008,12,08,10,12,2.80
2008,12,08,10,13,2.90
2008,12,08,10,14,2.90
2008,12,08,10,15,2.90
2008,12,08,10,16,3.00
2008,12,08,10,17,3.00
2008,12,08,10,18,3.10
2008,12,08,10,19,3.00
2008,12,08,10,20,3.00
2008,12,08,10,21,3.00
2008,12,08,10,22,3.00
2008,12,08,10,23,3.00
2008,12,08,10,24,3.10
2008,12,08,10,25,3.10
2008,12,08,10,26,3.10
2008,12,08,10,27,3.10
2008,12,08,10,28,3.20
2008,12,08,10,29,3.20
2008,12,08,10,30,3.20
2008,12,08,10,31,3.20
2008,12,08,10,32,3.10
2008,12,08,10,33,3.10
2008,12,08,10,34,3.10
2008,12,08,10,35,3.10
2008,12,08,10,36,3.10
2008,12,08,10,37,3.10
2008,12,08,10,38,3.10
2008,12,08,10,39,3.10
2008,12,08,10,40,3.20
2008,12,08,10,41,3.20
2008,12,08,10,42,3.20
2008,12,08,10,43,3.20
2008,12,08,10,44,3.30
2008,12,08,10,45,3.30
2008,12,08,10,46,3.30
2008,12,08,10,47,3.30
2008,12,08,10,48,3.40
2008,12,08,10,49,3.40
2008,12,08,10,50,3.40
2008,12,08,10,51,3.50
2008,12,08,10,52,3.50
2008,12,08,10,53,3.50
2008,12,08,10,54,3.60
2008,12,08,10,55,3.60
2008,12,08,10,56,3.50
2008,12,08,10,57,3.60
2008,12,08,10,58,3.60
2008,12,08,10,59,3.60
2008,12,08,11,00,3.60
2008,12,08,11,01,3.50
2008,12,08,11,02,3.50
2008,12,08,11,03,3.50
2008,12,08,11,04,3.50
2008,12,08,11,05,3.50
2008,12,08,11,06,3.40
2008,12,08,11,07,3.40
2008,12,08,11,08,3.40
2008,12,08,11,09,3.40
2008,12,08,11,10,3.40
2008,12,08,11,11,3.40
2008,12,08,11,12,3.40
2008,12,08,11,13,3.40
2008,12,08,11,14,3.50
2008,12,08,11,15,3.50
2008,12,08,11,16,3.60
2008,12,08,11,17,3.60
2008,12,08,11,18,3.60
2008,12,08,11,19,3.60
2008,12,08,11,20,3.60
2008,12,08,11,21,3.60
2008,12,08,11,22,3.60
2008,12,08,11,23,3.60
2008,12,08,11,24,3.60
2008,12,08,11,25,3.60
2008,12,08,11,26,3.60
2008,12,08,11,27,3.60
2008,12,08,11,28,3.60
2008,12,08,11,29,3.70
2008,12,08,11,30,3.70
2008,12,08,11,31,3.70
2008,12,08,11,32,3.70
2008,12,08,11,33,3.70
2008,12,08,11,34,3.70
2008,12,08,11,35,3.70
2008,12,08,11,36,3.70
2008,12,08,11,37,3.80
2008,12,08,11,38,3.80
2008,12,08,11,39,3.80
2008,12,08,11,40,3.70
2008,12,08,11,41,3.70
2008,12,08,11,42,3.70
2008,12,08,11,43,3.80
2008,12,08,11,44,3.80
2008,12,08,11,45,3.80
2008,12,08,11,46,3.80
2008,12,08,11,47,3.80
2008,12,08,11,48,3.80
2008,12,08,11,49,3.80
2008,12,08,11,50,3.80
2008,12,08,11,51,3.90
2008,12,08,11,52,3.90
2008,12,08,11,53,3.90
2008,12,08,11,54,3.90
2008,12,08,11,55,3.90
2008,12,08,11,56,4.00
2008,12,08,11,57,4.00
2008,12,08,11,58,4.00
2008,12,08,11,59,4.10
2008,12,08,12,00,4.10
2008,12,08,12,01,4.10
2008,12,08,12,02,4.10
2008,12,08,12,03,4.10
2008,12,08,12,04,4.10
2008,12,08,12,05,4.10
2008,12,08,12,06,4.10
2008,12,08,12,07,4.10
2008,12,08,12,08,4.10
2008,12,08,12,09,4.10
2008,12,08,12,10,4.20
2008,12,08,12,11,4.20
2008,12,08,12,12,4.20
2008,12,08,12,13,4.20
2008,12,08,12,14,4.20
2008,12,08,12,15,4.30
2008,12,08,12,16,4.30
2008,12,08,12,17,4.30
2008,12,08,12,18,4.40
2008,12,08,12,19,4.40
2008,12,08,12,20,4.40
2008,12,08,12,21,4.40
2008,12,08,12,22,4.40
2008,12,08,12,23,4.40
2008,12,08,12,24,4.40
2008,12,08,12,25,4.40
2008,12,08,12,26,4.40
2008,12,08,12,27,4.50
2008,12,08,12,28,4.50
2008,12,08,12,29,4.50
2008,12,08,12,30,4.60
2008,12,08,12,31,4.60
2008,12,08,12,32,4.60
2008,12,08,12,33,4.70
2008,12,08,12,34,4.70
2008,12,08,12,35,4.70
2008,12,08,12,36,4.70
2008,12,08,12,37,4.70
2008,12,08,12,38,4.70
2008,12,08,12,39,4.80
2008,12,08,12,40,4.80
2008,12,08,12,41,4.80
2008,12,08,12,42,4.80
2008,12,08,12,43,4.80
2008,12,08,12,44,4.80
2008,12,08,12,45,4.80
2008,12,08,12,46,4.80
2008,12,08,12,47,4.80
2008,12,08,12,48,4.80
2008,12,08,12,49,4.80
2008,12,08,12,50,4.70
2008,12,08,12,51,4.70
2008,12,08,12,52,4.70
2008,12,08,12,53,4.80
2008,12,08,12,54,4.80
2008,12,08,12,55,4.80
2008,12,08,12,56,4.80
2008,12,08,12,57,4.80
2008,12,08,12,58,4.80
2008,12,08,12,59,4.90
2008,12,08,13,00,4.90
2008,12,08,13,01,4.90
2008,12,08,13,02,5.00
2008,12,08,13,03,5.00
2008,12,08,13,04,5.00
2008,12,08,13,05,5.00
2008,12,08,13,06,5.00
2008,12,08,13,07,5.00
2008,12,08,13,08,5.00
2008,12,08,13,09,5.10
2008,12,08,13,10,5.10
2008,12,08,13,11,5.10
2008,12,08,13,12,5.10
2008,12,08,13,13,5.10
2008,12,08,13,14,5.10
2008,12,08,13,15,5.10
2008,12,08,13,16,5.10
2008,12,08,13,17,5.10
2008,12,08,13,18,5.10
2008,12,08,13,19,5.10
2008,12,08,13,20,5.10
2008,12,08,13,21,5.10
2008,12,08,13,22,5.10
2008,12,08,13,23,5.10
2008,12,08,13,24,5.10
2008,12,08,13,25,5.10
2008,12,08,13,26,5.10
2008,12,08,13,27,5.10
2008,12,08,13,28,5.10
2008,12,08,13,29,5.10
2008,12,08,13,30,5.10
2008,12,08,13,31,5.10
2008,12,08,13,32,5.10
2008,12,08,13,33,5.10
2008,12,08,13,34,5.10
2008,12,08,13,35,5.20
2008,12,08,13,36,5.20
2008,12,08,13,37,5.20
2008,12,08,13,38,5.20
2008,12,08,13,39,5.20
2008,12,08,13,40,5.20
2008,12,08,13,41,5.20
2008,12,08,13,42,5.20
2008,12,08,13,43,5.20
2008,12,08,13,44,5.20
2008,12,08,13,45,5.20
2008,12,08,13,46,5.20
2008,12,08,13,47,5.30
2008,12,08,13,48,5.30
2008,12,08,13,49,5.30
2008,12,08,13,50,5.30
2008,12,08,13,51,5.30
2008,12,08,13,52,5.30
2008,12,08,13,53,5.30
2008,12,08,13,54,5.30
2008,12,08,13,55,5.30
2008,12,08,13,56,5.30
2008,12,08,13,57,5.30
2008,12,08,13,58,5.30
2008,12,08,13,59,5.30
2008,12,08,14,00,5.30
2008,12,08,14,01,5.30
2008,12,08,14,02,5.30
2008,12,08,14,03,5.30
2008,12,08,14,04,5.30
2008,12,08,14,05,5.30
2008,12,08,14,06,5.40
2008,12,08,14,07,5.40
2008,12,08,14,08,5.40
2008,12,08,14,09,5.40
2008,12,08,14,10,5.40
2008,12,08,14,11,5.40
2008,12,08,14,12,5.40
2008,12,08,14,13,5.40
2008,12,08,14,14,5.50
2008,12,08,14,15,5.50
2008,12,08,14,16,5.50
2008,12,08,14,17,5.50
2008,12,08,14,18,5.50
2008,12,08,14,19,5.50
2008,12,08,14,20,5.50
2008,12,08,14,21,5.50
2008,12,08,14,22,5.50
2008,12,08,14,23,5.60
2008,12,08,14,24,5.60
2008,12,08,14,25,5.60
2008,12,08,14,26,5.60
2008,12,08,14,27,5.60
2008,12,08,14,28,5.60
2008,12,08,14,29,5.60
2008,12,08,14,30,5.60
2008,12,08,14,31,5.70
2008,12,08,14,32,5.70
2008,12,08,14,33,5.70
2008,12,08,14,34,5.70
2008,12,08,14,35,5.70
2008,12,08,14,36,5.70
2008,12,08,14,37,5.70
2008,12,08,14,38,5.70
2008,12,08,14,39,5.70
2008,12,08,14,40,5.70
2008,12,08,14,41,5.70
2008,12,08,14,42,5.70
2008,12,08,14,43,5.70
2008,12,08,14,44,5.70
2008,12,08,14,45,5.70
2008,12,08,14,46,5.70
2008,12,08,14,47,5.70
2008,12,08,14,48,5.70
2008,12,08,14,49,5.70
2008,12,08,14,50,5.70
2008,12,08,14,51,5.70
2008,12,08,14,52,5.70
2008,12,08,14,53,5.70
2008,12,08,14,54,5.70
2008,12,08,14,55,5.70
2008,12,08,14,56,5.70
2008,12,08,14,57,5.70
2008,12,08,14,58,5.70
2008,12,08,14,59,5.70
2008,12,08,15,00,5.70
2008,12,08,15,01,5.60
2008,12,08,15,02,5.60
2008,12,08,15,03,5.60
2008,12,08,15,04,5.60
2008,12,08,15,05,5.60
2008,12,08,15,06,5.60
2008,12,08,15,07,5.60
2008,12,08,15,08,5.60
2008,12,08,15,09,5.60
2008,12,08,15,10,5.60
2008,12,08,15,11,5.60
2008,12,08,15,12,5.60
2008,12,08,15,13,5.60
2008,12,08,15,14,5.60
2008,12,08,15,15,5.60
2008,12,08,15,16,5.60
2008,12,08,15,17,5.60
2008,12,08,15,18,5.60
2008,12,08,15,19,5.60
2008,12,08,15,20,5.60
2008,12,08,15,21,5.60
2008,12,08,15,22,5.60
2008,12,08,15,23,5.60
2008,12,08,15,24,5.60
2008,12,08,15,25,5.60
2008,12,08,15,26,5.60
2008,12,08,15,27,5.60
2008,12,08,15,28,5.60
2008,12,08,15,29,5.60
2008,12,08,15,30,5.60
2008,12,08,15,31,5.60
2008,12,08,15,32,5.60
2008,12,08,15,33,5.60
2008,12,08,15,34,5.60
2008,12,08,15,35,5.60
2008,12,08,15,36,5.60
2008,12,08,15,37,5.60
2008,12,08,15,38,5.60
2008,12,08,15,39,5.60
2008,12,08,15,40,5.60
2008,12,08,15,41,5.60
2008,12,08,15,42,5.60
2008,12,08,15,43,5.60
2008,12,08,15,44,5.60
2008,12,08,15,45,5.60
2008,12,08,15,46,5.60
2008,12,08,15,47,5.60
2008,12,08,15,48,5.60
2008,12,08,15,49,5.60
2008,12,08,15,50,5.60
2008,12,08,15,51,5.60
2008,12,08,15,52,5.60
2008,12,08,15,53,5.60
2008,12,08,15,54,5.60
2008,12,08,15,55,5.60
2008,12,08,15,56,5.60
2008,12,08,15,57,5.60
2008,12,08,15,58,5.60
2008,12,08,15,59,5.60
2008,12,08,16,00,5.60
2008,12,08,16,01,5.50
2008,12,08,16,02,5.50
2008,12,08,16,03,5.50
2008,12,08,16,04,5.50
2008,12,08,16,05,5.50
2008,12,08,16,06,5.50
2008,12,08,16,07,5.50
2008,12,08,16,08,5.40
2008,12,08,16,09,5.40
2008,12,08,16,10,5.40
2008,12,08,16,11,5.30
2008,12,08,16,12,5.30
2008,12,08,16,13,5.30
2008,12,08,16,14,5.30
2008,12,08,16,15,5.30
2008,12,08,16,16,5.20
2008,12,08,16,17,5.30
2008,12,08,16,18,5.30
2008,12,08,16,19,5.30
2008,12,08,16,20,5.20
2008,12,08,16,21,5.20
2008,12,08,16,22,5.20
2008,12,08,16,23,5.20
2008,12,08,16,24,5.20
2008,12,08,16,25,5.20
2008,12,08,16,26,5.10
2008,12,08,16,27,5.10
2008,12,08,16,28,5.10
2008,12,08,16,29,5.10
2008,12,08,16,30,5.10
2008,12,08,16,31,5.10
2008,12,08,16,32,5.10
2008,12,08,16,33,5.10
2008,12,08,16,34,5.00
2008,12,08,16,35,5.00
2008,12,08,16,36,5.00
2008,12,08,16,37,5.00
2008,12,08,16,38,5.00
2008,12,08,16,39,5.00
2008,12,08,16,40,5.00
2008,12,08,16,41,4.90
2008,12,08,16,42,5.00
2008,12,08,16,43,5.00
2008,12,08,16,44,4.90
2008,12,08,16,45,4.90
2008,12,08,16,46,4.90
2008,12,08,16,47,4.90
2008,12,08,16,48,5.00
2008,12,08,16,49,4.90
2008,12,08,16,50,4.90
2008,12,08,16,51,4.90
2008,12,08,16,52,4.90
2008,12,08,16,53,4.90
2008,12,08,16,54,4.90
2008,12,08,16,55,4.90
2008,12,08,16,56,4.90
2008,12,08,16,57,4.90
2008,12,08,16,58,4.90
2008,12,08,16,59,4.90
2008,12,08,17,00,4.90
2008,12,08,17,01,4.90
2008,12,08,17,02,4.80
2008,12,08,17,03,4.80
2008,12,08,17,04,4.80
2008,12,08,17,05,4.80
2008,12,08,17,06,4.80
2008,12,08,17,07,4.80
2008,12,08,17,08,4.80
2008,12,08,17,09,4.80
2008,12,08,17,10,4.80
2008,12,08,17,11,4.80
2008,12,08,17,12,4.80
2008,12,08,17,13,4.80
2008,12,08,17,14,4.80
2008,12,08,17,15,4.80
2008,12,08,17,16,4.80
2008,12,08,17,17,4.80
2008,12,08,17,18,4.80
2008,12,08,17,19,4.80
2008,12,08,17,20,4.80
2008,12,08,17,21,4.80
2008,12,08,17,22,4.70
2008,12,08,17,23,4.70
2008,12,08,17,24,4.70
2008,12,08,17,25,4.70
2008,12,08,17,26,4.70
2008,12,08,17,27,4.70
2008,12,08,17,28,4.70
2008,12,08,17,29,4.70
2008,12,08,17,30,4.60
2008,12,08,17,31,4.60
2008,12,08,17,32,4.60
2008,12,08,17,33,4.60
2008,12,08,17,34,4.60
2008,12,08,17,35,4.60
2008,12,08,17,36,4.60
2008,12,08,17,37,4.50
2008,12,08,17,38,4.50
2008,12,08,17,39,4.50
2008,12,08,17,40,4.50
2008,12,08,17,41,4.50
2008,12,08,17,42,4.50
2008,12,08,17,43,4.50
2008,12,08,17,44,4.50
2008,12,08,17,45,4.50
2008,12,08,17,46,4.40
2008,12,08,17,47,4.40
2008,12,08,17,48,4.40
2008,12,08,17,49,4.40
2008,12,08,17,50,4.40
2008,12,08,17,51,4.40
2008,12,08,17,52,4.40
2008,12,08,17,53,4.40
2008,12,08,17,54,4.30